Other Public Products
Issued by NWS Charleston, SC

Home | Current Version | Previous Version | Text Only | Print | Product List | Glossary On
Versions: 1 2 3 4 5 6 7 8 9 10 11 12 13 14 15 16 17 18 19 20 21 22 23 24 25 26 27 28 29 30 31 32 33 34 35 36 37 38 39 40 41 42 43 44 45 46 47 48 49 50
061
FPUS82 KCHS 260312
OPUCHS

TEST...KCHS/KSAV Gateway Observations...TEST
National Weather Service Charleston SC
1100 PM EDT SUN JUN 25 2017

NOTE: "fair" indicates few or no clouds below 12,000 feet with no
significant weather and/or obstructions to visibility.

SCZ050-WAZ558-NCZ071-TXZ119-213-PAZ071-DCZ001-FLZ074-172-MI076-
NYZ176-178-MAZ016-IL014-TNZ027-NJZ106-GAZ044-MD014-260400-

...Gateway Observations for Charleston International...

CITY           SKY/WX    TMP DP  RH WIND       PRES   REMARKS
Chas Airport   CLOUDY    75  73  93 CALM      30.07R
Seattle        MOCLDY    87  49  26 N10       29.84S
Charlotte      CLOUDY    69  61  75 N5        30.14R
Dallas DFW     PTCLDY    80  61  52 E8        30.14R
Dallas Love    PTCLDY    81  61  50 E8        30.15R
Philladelphia  PTCLDY    77  49  37 W10       30.00R
Wash National  PTCLDY    76  46  34 VRB5      30.04R
Baltimore      PTCLDY    68  51  54 W6        30.03R
Miami          PTCLDY    84  74  71 E8        30.10R HX  91
Detroit        PTCLDY    62  46  55 W6        30.06R
Newark         CLOUDY    77  52  41 W9        29.96R
Laguardia      CLOUDY    79  53  40 W10       29.94R
J F K          CLOUDY    71  68  90 S7        29.96R
Boston Logan   CLOUDY    66  57  72 NW10      29.93F
Ft. Lauderdale PTCLDY    83  75  77 E10       30.10R HX  90
Chicago O`Hare PTCLDY    62  49  62 W8        30.10S
Chicago Midway PTCLDY    63  49  60 W8        30.11R
Houston Bush   MOCLDY    75  73  93 NE8       30.11R
Houston Hobby  MOCLDY    82  73  74 E3        30.09S
Nashville      CLEAR     69  53  56 CALM      30.19R
Atlanta        MOCLDY    69  61  75 NW10      30.16R

$$

GAZ044-118-TXZ119-213-NCZ071-DCZ001-MDZ014-506-PAZ021-071-NJZ106-
NYZ176-178-MAZ106-OHZ011-021-055-MIZ076-KYZ091-ILZ014-INZ047-
MNZ060-ONZ431-260400-

...Gateway Observations for Savannah International...

CITY           SKY/WX    TMP DP  RH WIND       PRES   REMARKS
Savannah Arpt  CLOUDY    76  74  93 CALM      30.07R
Atlanta        MOCLDY    69  61  75 NW10      30.16R
Charlotte      CLOUDY    69  61  75 N5        30.14R
Dallas DFW     PTCLDY    80  61  52 E8        30.14R
Houston Bush   MOCLDY    75  73  93 NE8       30.11R
Wash National  PTCLDY    76  46  34 VRB5      30.04R
Wash Dulles    PTCLDY    69  46  43 W6        30.06R
Baltimore      PTCLDY    68  51  54 W6        30.03R
Philadelphia   PTCLDY    77  49  37 W10       30.00R
Newark         CLOUDY    77  52  41 W9        29.96R
Laguardia      CLOUDY    79  53  40 W10       29.94R
J F K          CLOUDY    71  68  90 S7        29.96R
Boston         CLOUDY    66  57  72 NW10      29.93F
Pittsburg      PTCLDY    63  45  51 W5        30.08S
Akron          PTCLDY    59  46  62 SW6       30.09R
Cleveland      PTCLDY    63  46  54 SW8       30.08R
Cincinnati     PTCLDY    64  49  57 W5        30.13R
Columbus       PTCLDY    63  48  58 CALM      30.11S
Detroit        PTCLDY    62  46  55 W6        30.06R
Chicago O`Hare PTCLDY    62  49  62 W8        30.10S
Minneapolis    PTCLDY    63  41  44 W6        30.13R
Indianapolis   PTCLDY    64  48  56 W8        30.13R
Toronto Canada MOCLDY    63  50  63 W8        29.98R

$$




USA.gov is the U.S. government's official web portal to all federal, state and local government web resources and services.